TimeCST,TemperatureF,Dew PointF,Humidity,Sea Level PressureIn,VisibilityMPH,Wind Direction,Wind SpeedMPH,Gust SpeedMPH,PrecipitationIn,Events,Conditions,WindDirDegrees,DateUTC
12:15 AM,57.2,53.6,88,30.13,10.0,South,10.4,-,N/A,,Clear,170,2012-11-11 06:15:00
12:35 AM,59.0,53.6,82,30.13,9.0,South,13.8,-,0.00,,Scattered Clouds,170,2012-11-11 06:35:00
12:55 AM,59.0,53.6,82,30.12,9.0,South,13.8,19.6,0.00,,Scattered Clouds,170,2012-11-11 06:55:00
1:15 AM,59.0,53.6,82,30.13,9.0,SSE,11.5,-,0.00,,Clear,160,2012-11-11 07:15:00
1:35 AM,57.2,53.6,88,30.13,10.0,South,12.7,18.4,0.00,,Clear,170,2012-11-11 07:35:00
1:55 AM,57.2,53.6,88,30.13,10.0,South,11.5,19.6,0.00,,Partly Cloudy,170,2012-11-11 07:55:00
2:15 AM,59.0,53.6,82,30.13,10.0,South,15.0,-,0.00,,Mostly Cloudy,170,2012-11-11 08:15:00
2:35 AM,59.0,53.6,82,30.13,9.0,South,13.8,19.6,0.00,,Overcast,170,2012-11-11 08:35:00
2:55 AM,59.0,53.6,82,30.13,10.0,South,15.0,20.7,0.00,,Mostly Cloudy,170,2012-11-11 08:55:00
3:15 AM,59.0,53.6,82,30.12,10.0,South,15.0,-,0.00,,Overcast,170,2012-11-11 09:15:00
3:35 AM,59.0,53.6,82,30.12,9.0,SSE,12.7,-,0.00,,Overcast,160,2012-11-11 09:35:00
3:55 AM,59.0,53.6,82,30.12,10.0,South,13.8,17.3,0.00,,Overcast,170,2012-11-11 09:55:00
4:15 AM,59.0,53.6,82,30.12,10.0,South,9.2,-,0.00,,Overcast,170,2012-11-11 10:15:00
4:35 AM,59.0,53.6,82,30.12,9.0,SSE,9.2,17.3,0.00,,Overcast,160,2012-11-11 10:35:00
4:55 AM,59.0,53.6,82,30.13,10.0,SSE,10.4,20.7,N/A,,Overcast,160,2012-11-11 10:55:00
5:15 AM,59.0,55.4,88,30.12,9.0,SSE,12.7,18.4,0.00,,Overcast,160,2012-11-11 11:15:00
5:35 AM,59.0,55.4,88,30.13,8.0,SSE,11.5,19.6,0.00,,Overcast,160,2012-11-11 11:35:00
7:51 AM,60.8,57.2,88,30.13,10.0,SSE,11.5,18.4,N/A,,Mostly Cloudy,150,2012-11-11 13:51:00
8:50 AM,62.6,57.2,82,30.14,10.0,SSE,11.5,23.0,N/A,,Mostly Cloudy,160,2012-11-11 14:50:00
9:50 AM,64.4,57.2,77,30.15,10.0,South,17.3,23.0,N/A,,Mostly Cloudy,180,2012-11-11 15:50:00
10:55 AM,69.8,57.2,64,30.12,10.0,South,15.0,28.8,N/A,,Mostly Cloudy,170,2012-11-11 16:55:00
11:50 AM,69.8,57.2,64,30.09,10.0,South,17.3,28.8,N/A,,Mostly Cloudy,180,2012-11-11 17:50:00
12:50 PM,73.4,55.4,53,30.02,10.0,South,20.7,32.2,N/A,,Mostly Cloudy,180,2012-11-11 18:50:00
1:50 PM,75.2,55.4,50,30.01,10.0,South,20.7,32.2,N/A,,Mostly Cloudy,170,2012-11-11 19:50:00
2:50 PM,73.4,55.4,53,29.98,10.0,South,23.0,34.5,N/A,,Mostly Cloudy,170,2012-11-11 20:50:00
3:50 PM,71.6,55.4,57,29.98,10.0,SSE,17.3,28.8,N/A,,Mostly Cloudy,160,2012-11-11 21:50:00
4:55 PM,69.8,55.4,60,30.00,10.0,SSE,17.3,24.2,N/A,,Mostly Cloudy,160,2012-11-11 22:55:00
5:45 PM,66.2,60.8,83,30.02,5.0,SSE,9.2,20.7,N/A,Rain-Thunderstorm,Thunderstorms and Rain,160,2012-11-11 23:45:00
6:21 PM,66.2,60.8,83,30.00,8.0,SSE,13.8,21.9,N/A,Rain,Light Rain,150,2012-11-12 00:21:00
6:55 PM,64.4,62.6,94,30.00,5.0,SSE,11.5,21.9,N/A,Rain,Rain,160,2012-11-12 00:55:00
7:55 PM,62.6,62.6,100,30.03,1.5,South,13.8,19.6,N/A,,Overcast,190,2012-11-12 01:55:00
8:15 PM,62.6,62.6,100,30.05,1.2,SSW,10.4,21.9,0.16,,Overcast,200,2012-11-12 02:15:00
8:35 PM,60.8,60.8,100,30.05,2.5,South,8.1,-,0.19,,Mostly Cloudy,180,2012-11-12 02:35:00
8:55 PM,60.8,60.8,100,30.05,2.0,SSE,8.1,-,N/A,,Overcast,160,2012-11-12 02:55:00
9:15 PM,60.8,60.8,100,30.05,2.5,South,11.5,-,0.06,,Overcast,170,2012-11-12 03:15:00
9:35 PM,60.8,60.8,100,30.05,4.0,SSE,10.4,-,0.08,,Overcast,160,2012-11-12 03:35:00
9:55 PM,60.8,60.8,100,30.04,3.0,South,11.5,18.4,0.12,,Overcast,170,2012-11-12 03:55:00
10:15 PM,60.8,60.8,100,30.02,4.0,SSE,13.8,23.0,0.03,,Overcast,160,2012-11-12 04:15:00
10:35 PM,62.6,62.6,100,30.03,3.0,South,16.1,21.9,0.07,,Overcast,170,2012-11-12 04:35:00
10:55 PM,62.6,62.6,100,30.03,5.0,South,11.5,20.7,0.11,,Overcast,170,2012-11-12 04:55:00
11:15 PM,62.6,62.6,100,30.02,9.0,South,16.1,20.7,0.01,,Overcast,180,2012-11-12 05:15:00
11:35 PM,62.6,62.6,100,30.03,3.0,WSW,8.1,-,N/A,,Overcast,240,2012-11-12 05:35:00
11:55 PM,53.6,53.6,100,30.05,2.0,NW,13.8,23.0,0.14,,Overcast,310,2012-11-12 05:55:00